[[{"header":{"parameterUnit":"m.s-1","parameterCategory":1,"la1":30.2991,"la2":30.254,"lo1":-89.0895,"lo2":-89.0444,"dy":0.0017,"dx":0.0017,"nx":28,"ny":28,"refTime":"2024-11-28T03:00:00:Z","depth":0,"parameterNumber":2,"parameterNumberName":"U-component_of_WINDS"},"data":[0,0,0,0,0,0,0,0,0,0,0,0,0,0,0,0,0,0,0,0,0,0,0,0,0,0,0,0,0,0,0,0,0,0,0,0,0,0,0,0,0,0,0,0,0,0,0,0,0,0,0,0,0,0,0,0,0,0,-0.7783,-0.7784,0,-0.7834,-0.7835,-0.7835,-0.7811,-0.781,-0.7808,-0.7807,-0.7861,-0.7864,-0.7866,0,0,0,0,0,0,0,0,0,0,0,0,0,-0.7666,-0.7668,-0.7783,-0.7784,-0.7785,-0.7834,-0.7835,-0.7836,-0.7811,-0.7809,-0.7808,-0.7806,-0.786,-0.7863,-0.7867,0,0,0,0,0,0,0,0,0,0,0,0,0,-0.7717,-0.7669,-0.7783,-0.7778,-0.7778,-0.7834,-0.7835,-0.7836,-0.7811,-0.7809,-0.7807,-0.7806,-0.7859,-0.7863,-0.7867,-0.7931,0,0,-0.7879,-0.7881,0,0,0,0,0,0,0,0,-0.7714,-0.7721,-0.7778,-0.7779,-0.7779,-0.7814,-0.7813,-0.7868,-0.7812,-0.7799,-0.7807,-0.7805,-0.7847,-0.7852,-0.7866,-0.7934,-0.7936,-0.788,-0.7882,-0.7884,-0.7885,0,0,0,0,0,0,0,-0.771,-0.7719,-0.7804,-0.7779,-0.778,-0.7774,-0.7779,-0.7823,-0.7834,-0.78,-0.7798,-0.7805,-0.7847,-0.7862,-0.7867,-0.7937,-0.7879,-0.7883,-0.7885,-0.7887,-0.8059,-0.8061,0,0,0,0,0,0,-0.7707,-0.7716,-0.7802,-0.7805,-0.7741,-0.7778,-0.7783,-0.7805,-0.7833,-0.7835,-0.7806,-0.7803,-0.7856,-0.7862,-0.7869,-0.7946,-0.7884,-0.7887,-0.789,-0.8057,-0.806,-0.8062,0,0,0,0,0,0,-0.7704,-0.7715,-0.78,-0.776,-0.777,-0.7782,-0.7806,-0.7807,-0.7822,-0.7838,-0.7839,-0.782,-0.7855,-0.7863,-0.7916,-0.7948,-0.7889,-0.7893,-0.8054,-0.8058,-0.8061,-0.8101,0,0,0,0,0,0,-0.7701,-0.7714,-0.7739,-0.7761,-0.7773,-0.7846,-0.7808,-0.7809,-0.7829,-0.7826,-0.7851,-0.7853,-0.7854,-0.791,-0.792,-0.7952,-0.7896,-0.8052,-0.8056,-0.806,-0.8097,-0.8105,-0.8112,0,0,0,0,0,-0.7697,-0.7748,-0.774,-0.775,-0.7803,-0.7848,-0.7854,-0.7854,-0.7832,-0.7856,-0.7866,-0.7853,-0.7942,-0.7915,-0.7926,-0.796,-0.805,-0.8055,-0.8059,-0.8094,-0.8104,-0.8112,0,0,0,0,0,0,-0.773,-0.7751,-0.7742,-0.7802,-0.7823,-0.7843,-0.7875,-0.7865,-0.7893,-0.7889,-0.7887,-0.7893,-0.7947,-0.7959,-0.7929,-0.8024,-0.7993,-0.8,-0.8015,-0.8024,-0.8032,-0.8029,-0.7899,0,0,0,0,0,-0.7744,-0.7778,-0.7795,-0.7846,-0.7857,-0.7864,-0.7883,-0.788,-0.7903,-0.7912,-0.7925,-0.7948,-0.7981,-0.8003,-0.8034,-0.8098,-0.8103,-0.8126,-0.8134,-0.814,-0.8147,-0.8182,-0.8192,-0.8078,-0.8078,-0.8078,0,0,-0.7775,-0.779,-0.7812,-0.7853,-0.7869,-0.7904,-0.7872,-0.7911,-0.7937,-0.7918,-0.7968,-0.7979,-0.8004,-0.8062,-0.8088,-0.8073,-0.818,-0.8147,-0.8151,-0.8155,-0.8188,-0.8199,-0.8208,-0.8081,-0.8081,-0.808,0,0,-0.7848,-0.7862,-0.7907,-0.7923,-0.7947,-0.7951,-0.7962,-0.7984,-0.799,-0.804,-0.8026,-0.8057,-0.8114,-0.8133,-0.8149,-0.8227,-0.8216,-0.8238,-0.8279,-0.8312,-0.8321,-0.8329,-0.8358,-0.8368,-0.8244,-0.8244,-0.8244,0,-0.7882,-0.7935,-0.7931,-0.7971,-0.799,-0.7972,-0.8017,-0.8034,-0.8067,-0.8081,-0.8063,-0.8134,-0.8149,-0.8211,-0.823,-0.8244,-0.8256,-0.8236,-0.832,-0.8328,-0.8336,-0.8363,-0.8374,-0.8247,-0.8246,-0.8246,-0.8246,0,-0.7976,-0.8013,-0.8046,-0.8078,-0.81,-0.8142,-0.8145,-0.8168,-0.8163,-0.8169,-0.822,-0.8237,-0.8272,-0.8286,-0.8282,-0.8348,-0.8338,-0.832,-0.8289,-0.8349,-0.8375,-0.8385,-0.825,-0.8249,-0.8249,-0.8248,0,0,-0.8074,-0.8102,-0.8115,-0.8129,-0.8154,-0.8182,-0.8223,-0.8256,-0.8276,-0.8299,-0.8334,-0.8382,-0.8365,-0.8384,-0.8382,-0.8411,-0.8472,-0.839,-0.839,-0.8406,-0.8547,-0.8561,-0.8573,-0.8464,-0.8466,-0.8468,-0.8545,0,-0.815,-0.8222,-0.8219,-0.8286,-0.832,-0.8303,-0.8339,-0.8358,-0.8365,-0.8394,-0.8401,-0.8435,-0.8411,-0.8422,-0.845,-0.8459,-0.8501,-0.8453,-0.8498,-0.8499,-0.8494,-0.8586,-0.8602,-0.8674,-0.8555,-0.8557,-0.8558,0,-0.8248,-0.8274,-0.8345,-0.8364,-0.8378,-0.841,-0.844,-0.8468,-0.849,-0.8492,-0.8512,-0.8505,-0.8546,-0.8512,-0.857,-0.8538,-0.8556,-0.8562,-0.8565,-0.8571,-0.8534,-0.8596,-0.8697,-0.8709,-0.8573,-0.8572,-0.8571,0,-0.8314,-0.8366,-0.8415,-0.8428,-0.8451,-0.8474,-0.8485,-0.8504,-0.8524,-0.855,-0.8562,-0.8593,-0.861,-0.8634,-0.8634,-0.8609,-0.8693,-0.8659,-0.8697,-0.8697,-0.8717,-0.8716,-0.8824,-0.8726,-0.8726,-0.8725,-0.8725,0,-0.84,-0.8444,-0.8445,-0.8476,-0.8524,-0.852,-0.8569,-0.8577,-0.8594,-0.8626,-0.8612,-0.8643,-0.8641,-0.8671,-0.8672,-0.872,-0.8728,-0.8731,-0.8731,-0.8734,-0.8733,-0.8747,-0.8742,-0.8728,-0.8728,-0.8727,-0.8726,0,-0.8483,-0.8485,-0.8537,-0.8554,-0.856,-0.8595,-0.861,-0.8639,-0.8643,-0.8683,-0.8693,-0.8699,-0.8735,-0.8737,-0.8778,-0.8778,-0.8837,-0.883,-0.883,-0.8829,-0.8867,-0.8864,-0.8989,-0.9005,-0.8895,-0.8896,-0.8897,0,-0.8539,-0.8572,-0.8592,-0.8612,-0.8624,-0.8657,-0.8677,-0.8673,-0.8694,-0.872,-0.8746,-0.878,-0.8807,-0.8863,-0.8872,-0.8903,-0.8899,-0.894,-0.8903,-0.8904,-0.8901,-0.8899,-0.8903,-0.8948,-0.8949,-0.895,-0.8951,0,-0.8638,-0.8637,-0.8665,-0.8694,-0.8718,-0.8741,-0.8762,-0.8779,-0.8778,-0.8803,-0.8838,-0.8859,-0.89,-0.8934,-0.8963,-0.8975,-0.8963,-0.8962,-0.8973,-0.8976,-0.8975,-0.8977,-0.8851,-0.896,-0.8959,-0.8958,-0.8958,-0.8957,-0.871,-0.8739,-0.8757,-0.8789,-0.8805,-0.8824,-0.8852,-0.8859,-0.8889,-0.8922,-0.8917,-0.8957,-0.8976,-0.9015,-0.9028,-0.9059,-0.9045,-0.906,-0.9064,-0.9069,-0.9073,-0.8968,-0.9064,-0.9064,-0.9064,-0.9064,-0.9063,0,-0.8809,-0.882,-0.8849,-0.8879,-0.8904,-0.8889,-0.8912,-0.8934,-0.8969,-0.8987,-0.9014,-0.9054,-0.9086,-0.9097,-0.9128,-0.9151,-0.9146,-0.9159,-0.9159,-0.9162,-0.9083,-0.9072,-0.9163,-0.9163,-0.9163,-0.9163,-0.9163,-0.9163,-0.8864,-0.8912,-0.8913,-0.8969,-0.8979,-0.9017,-0.9031,-0.9049,-0.9064,-0.911,-0.9136,-0.9142,-0.9158,-0.919,-0.9219,-0.9221,-0.9234,-0.9249,-0.925,-0.9177,-0.9167,-0.9158,-0.9147,-0.9252,-0.9252,-0.9325,-0.9326,-0.9327]},{"header":{"parameterUnit":"m.s-1","parameterCategory":1,"la1":30.2991,"la2":30.254,"lo1":-89.0895,"lo2":-89.0444,"dy":0.0017,"dx":0.0017,"nx":28,"ny":28,"refTime":"2024-11-28T03:00:00:Z","depth":0,"parameterNumber":3,"parameterNumberName":"V-component_of_WINDS"},"data":[0,0,0,0,0,0,0,0,0,0,0,0,0,0,0,0,0,0,0,0,0,0,0,0,0,0,0,0,0,0,0,0,0,0,0,0,0,0,0,0,0,0,0,0,0,0,0,0,0,0,0,0,0,0,0,0,0,0,-8.2701,-8.2702,0,-8.283,-8.2832,-8.2833,-8.2746,-8.2742,-8.2738,-8.2735,-8.286,-8.2867,-8.2874,0,0,0,0,0,0,0,0,0,0,0,0,0,-8.2371,-8.2378,-8.2701,-8.2702,-8.2704,-8.283,-8.2832,-8.2834,-8.2747,-8.2742,-8.2737,-8.2733,-8.2858,-8.2866,-8.2875,0,0,0,0,0,0,0,0,0,0,0,0,0,-8.2509,-8.238,-8.27,-8.2676,-8.2675,-8.283,-8.2832,-8.2834,-8.2748,-8.2742,-8.2736,-8.2731,-8.2855,-8.2865,-8.2876,-8.3059,0,0,-8.2908,-8.2912,0,0,0,0,0,0,0,0,-8.2501,-8.2521,-8.2678,-8.2678,-8.2677,-8.2766,-8.2762,-8.2909,-8.2749,-8.272,-8.2735,-8.2728,-8.2833,-8.2845,-8.2882,-8.3065,-8.307,-8.2909,-8.2915,-8.292,-8.2923,0,0,0,0,0,0,0,-8.2492,-8.2515,-8.2752,-8.268,-8.268,-8.2656,-8.2669,-8.2789,-8.2808,-8.2722,-8.2716,-8.2733,-8.2832,-8.2872,-8.2884,-8.3072,-8.2908,-8.2918,-8.2924,-8.2928,-8.3411,-8.3418,0,0,0,0,0,0,-8.2485,-8.2508,-8.2748,-8.2756,-8.2573,-8.2667,-8.2682,-8.2744,-8.2807,-8.2811,-8.2738,-8.2729,-8.2857,-8.2872,-8.2889,-8.3108,-8.292,-8.2929,-8.2935,-8.3405,-8.3413,-8.342,0,0,0,0,0,0,-8.2479,-8.2508,-8.2742,-8.263,-8.2658,-8.2679,-8.2749,-8.2749,-8.279,-8.2819,-8.2821,-8.2777,-8.2853,-8.2874,-8.3018,-8.3111,-8.2934,-8.2944,-8.3397,-8.3407,-8.3416,-8.3547,0,0,0,0,0,0,-8.247,-8.2506,-8.2577,-8.2633,-8.2665,-8.2872,-8.2755,-8.2756,-8.2809,-8.2798,-8.2855,-8.2859,-8.285,-8.3003,-8.3028,-8.3122,-8.2952,-8.3389,-8.3402,-8.3413,-8.3535,-8.356,-8.3582,0,0,0,0,0,-8.2458,-8.2607,-8.2581,-8.2611,-8.2755,-8.2878,-8.2896,-8.2884,-8.2817,-8.2888,-8.2906,-8.2857,-8.3097,-8.3018,-8.3046,-8.3144,-8.3383,-8.3398,-8.3412,-8.3524,-8.3555,-8.3581,0,0,0,0,0,0,-8.256,-8.2614,-8.2586,-8.2758,-8.2814,-8.2863,-8.2952,-8.2918,-8.2992,-8.2979,-8.2959,-8.2973,-8.3124,-8.3148,-8.306,-8.3325,-8.3229,-8.325,-8.3304,-8.3334,-8.3357,-8.3348,-8.2961,0,0,0,0,0,-8.2603,-8.27,-8.2741,-8.2889,-8.2919,-8.2931,-8.2984,-8.2971,-8.3027,-8.3049,-8.3078,-8.3133,-8.322,-8.3278,-8.336,-8.3538,-8.3548,-8.3619,-8.3643,-8.3662,-8.368,-8.3775,-8.3807,-8.3468,-8.3468,-8.3468,0,0,-8.2691,-8.2733,-8.2795,-8.291,-8.2952,-8.3052,-8.2951,-8.306,-8.3133,-8.3065,-8.3204,-8.3227,-8.3286,-8.3448,-8.3521,-8.3473,-8.3776,-8.3681,-8.3696,-8.3704,-8.3794,-8.3826,-8.3855,-8.3478,-8.3476,-8.3475,0,0,-8.2903,-8.2945,-8.3073,-8.3118,-8.3184,-8.3191,-8.3222,-8.3277,-8.329,-8.343,-8.3381,-8.3466,-8.3617,-8.3661,-8.3704,-8.3934,-8.3891,-8.3961,-8.4085,-8.4178,-8.4205,-8.4228,-8.431,-8.434,-8.3979,-8.398,-8.398,0,-8.3004,-8.3155,-8.3142,-8.3257,-8.3308,-8.3254,-8.3382,-8.3425,-8.3513,-8.3549,-8.3495,-8.3685,-8.372,-8.3892,-8.3949,-8.3985,-8.4018,-8.3954,-8.4202,-8.4226,-8.4248,-8.4326,-8.4357,-8.3988,-8.3987,-8.3986,-8.3985,0,-8.3276,-8.3381,-8.3475,-8.3566,-8.3628,-8.3748,-8.3752,-8.3816,-8.3798,-8.381,-8.3952,-8.3994,-8.4083,-8.4123,-8.4105,-8.4292,-8.4261,-8.4205,-8.4108,-8.4289,-8.4361,-8.4391,-8.3999,-8.3996,-8.3994,-8.3992,0,0,-8.3555,-8.3638,-8.3673,-8.3713,-8.3783,-8.3862,-8.3979,-8.407,-8.4125,-8.4187,-8.4284,-8.4414,-8.4363,-8.4412,-8.4398,-8.448,-8.466,-8.4414,-8.4415,-8.4458,-8.4868,-8.491,-8.4944,-8.4632,-8.4637,-8.4642,-8.4863,0,-8.3771,-8.3979,-8.3972,-8.4165,-8.4261,-8.4211,-8.4313,-8.4365,-8.438,-8.4462,-8.4476,-8.4569,-8.4495,-8.4524,-8.4603,-8.4621,-8.4742,-8.4605,-8.472,-8.4724,-8.4707,-8.4982,-8.5027,-8.5233,-8.4891,-8.4896,-8.49,0,-8.4052,-8.4127,-8.4331,-8.4386,-8.4426,-8.4518,-8.4601,-8.468,-8.4738,-8.4742,-8.4798,-8.4771,-8.4887,-8.4788,-8.4947,-8.4855,-8.4901,-8.4917,-8.4925,-8.4935,-8.4823,-8.5,-8.5299,-8.533,-8.4944,-8.4941,-8.4938,0,-8.4235,-8.4387,-8.4529,-8.4565,-8.4633,-8.4699,-8.473,-8.4782,-8.4837,-8.4908,-8.4943,-8.5026,-8.5071,-8.5135,-8.513,-8.5058,-8.5292,-8.5192,-8.5298,-8.5299,-8.5349,-8.5346,-8.566,-8.538,-8.5379,-8.5379,-8.5378,0,-8.4478,-8.4604,-8.4613,-8.47,-8.4839,-8.4829,-8.4966,-8.499,-8.5037,-8.5126,-8.5086,-8.517,-8.5159,-8.5243,-8.524,-8.5373,-8.5393,-8.5399,-8.5396,-8.5403,-8.5402,-8.5432,-8.5418,-8.5387,-8.5385,-8.5384,-8.5382,0,-8.4706,-8.4717,-8.4868,-8.4922,-8.4938,-8.5038,-8.5082,-8.5164,-8.5176,-8.5289,-8.5315,-8.5332,-8.5429,-8.5431,-8.5541,-8.5538,-8.57,-8.5682,-8.5682,-8.5678,-8.5785,-8.5775,-8.6129,-8.6175,-8.5865,-8.5868,-8.587,0,-8.4861,-8.4957,-8.5022,-8.508,-8.5116,-8.521,-8.5267,-8.5259,-8.5319,-8.5393,-8.5465,-8.5559,-8.5633,-8.579,-8.5811,-8.5894,-8.5877,-8.5996,-8.5889,-8.5893,-8.5879,-8.5873,-8.5882,-8.6016,-8.602,-8.6022,-8.6025,0,-8.5133,-8.5134,-8.5219,-8.5306,-8.5376,-8.5443,-8.5505,-8.5555,-8.5554,-8.5623,-8.5724,-8.5782,-8.5895,-8.5988,-8.6069,-8.6098,-8.6062,-8.6058,-8.6087,-8.6094,-8.6091,-8.6094,-8.5739,-8.605,-8.6047,-8.6046,-8.6044,-8.6043,-8.5329,-8.5413,-8.5472,-8.5568,-8.5614,-8.5674,-8.5754,-8.5776,-8.586,-8.5954,-8.5944,-8.6055,-8.6109,-8.6215,-8.6251,-8.6336,-8.6295,-8.6337,-8.6347,-8.6358,-8.6369,-8.6078,-8.6351,-8.635,-8.6349,-8.6349,-8.6348,0,-8.56,-8.5636,-8.5724,-8.5814,-8.5889,-8.5851,-8.5918,-8.5982,-8.6082,-8.6137,-8.6212,-8.6326,-8.6416,-8.6445,-8.6531,-8.6594,-8.6579,-8.6617,-8.6612,-8.6619,-8.6401,-8.6368,-8.6627,-8.6627,-8.6627,-8.6627,-8.6627,-8.6627,-8.5749,-8.5889,-8.5897,-8.6059,-8.6093,-8.6204,-8.6246,-8.63,-8.6344,-8.6475,-8.655,-8.6569,-8.6613,-8.6703,-8.6783,-8.6789,-8.6823,-8.6868,-8.6866,-8.6662,-8.6634,-8.6608,-8.6576,-8.6875,-8.6875,-8.7077,-8.7079,-8.708]}]]